星链-32428 (STARLINK-32428)

导读 | 星芒AI

STARLINK-32428 是 SpaceX 星链计划中的一颗低轨通信卫星,属于星链第三代组网卫星的一部分。该卫星于2024年发射,旨在提升全球互联网覆盖,特别是在偏远地区的网络连接能力。它运行在约550公里高度的近地轨道,配备先进通信设备,支持高速、低延迟的数据传输。星链系统通过大规模部署此类卫星,致力于构建一个全球化的宽带网络服务。

基本信息
目录编号:
61666
目录名称:
STARLINK-32428
国际标识:
2024-193F
轨道中心:
EARTH
卫星名称:
星链-32428
卫星全名:
星链-32428 (STARLINK-32428)
卫星状态:
在轨 (已飞行374 天)
发射日期:
2024-10-26 UTC
国别 :
美国 (US)
星等 :
--
轨道信息
数据来源 国际轨道数据
星历时间: 2025-11-04T01:29:59+0800
12小时前
查看轨道信息
半长轴: 6853.437km
偏心率: 0.0001688
轨道倾角: 53.162°
近地点辐角 112.815°
升交点赤经 315.934°
平近点角 247.303°
近地点: 474.145km
远地点: 476.459km
周期: 94.107分钟
每日圈数: 15.301716
详细信息
固有亮度:
5
最大亮度:
2.5
卫星平台:
Starlink V1.0
覆盖范围:
全球
运营商:
太空探索技术公司
运营商所在国:
美国
制造商(研发单位):
太空探索技术公司
制造商所在国:
美国
使用方式:
暂无
卫星简介
Starlink 计划是 SpaceX 推出的全球卫星互联网项目,通过发射低轨道卫星,为全球尤其是偏远地区提供高速、低延迟的互联网服务。自 2019 年起,Starlink 已部署数千颗卫星,旨在缩小全球数字鸿沟,推动互联网普及。该项目还为军事、航空等行业提供通信支持,带来广泛经济效益。
2D轨道图
3D轨道图
轨道高度分析图
轨道倾角分析图
轨道综合分析图
查看轨道综合分析图